User: anonymous   Login
Location: Unspecified
(0.0000°N, 0.0000°E)
Time: 07:41:57
(UTC+00:00)
Language:

STARLINK-30810 - Orbit

View from above orbital plane
View from above orbital plane
View from above satellite
View from above satellite

Ground track
Ground track

The orbit is defined by the following mean orbital elements,

1 58178U          26145.15146508 +.00000000 +00000-0 +27267-3 0 00007
2 58178  43.0011  71.1885 0000880 291.3625  68.7133 15.27596699    01
Epoch (UTC): 25 May 2026 03:38:06
Eccentricity: 0.0000880
inclination: 43.0011°
perigee height: 482 km
apogee height: 484 km
right ascension of ascending node: 71.1885°
argument of perigee: 291.3625°
revolutions per day: 15.27596699
mean anomaly at epoch: 68.7133°

The dashed part of the orbit path shows where the satellite is in the earth's shadow,  

DLR